[Date Prev][Date Next][Thread Prev][Thread Next] - [Date Index][Thread Index][Author Index]
2 Line ISS Keps 5-22
- Subject: [sarex] 2 Line ISS Keps 5-22
- From: "Dave Larsen PhD" <doc@xxxxxxxxxxx>
- Date: Sat, 22 May 2004 05:01:01 -0700
ISS
1 25544U 98067A 04143.48993056 .00016413 00000-0 14800-3 0 8301
2 25544 51.6320 96.6803 0006265 138.3051 6.8401 15.68307018314287
----
Via the sarex mailing list at AMSAT.ORG courtesy of AMSAT-NA.
To unsubscribe, send "unsubscribe sarex" to Majordomo@amsat.org
AMSAT Home